Weather History for Chihuahua, Mexico

Change the Weather History Date:

Friday, March 14, 2014

  Actual Average Record
Temperature  
Mean Temperature 66 °F -  
Max Temperature 82 °F 77 °F 87 °F (2008)
Min Temperature 50 °F 45 °F 32 °F (1999)
Cooling Degree Days 1    
Growing Degree Days 16 (Base 50)    
Moisture  
Dew Point 28 °F    
Average Humidity 25    
Maximum Humidity 65    
Minimum Humidity 11    
Precipitation  
Precipitation 0.00 in - - ()
Sea Level Pressure  
Sea Level Pressure 29.88 in    
Wind  
Wind Speed 4 mph ()    
Max Wind Speed 16 mph    
Max Gust Speed -    
Visibility 8.2 miles    
Events      
Averages and records for this station are not official NWS values.
T = Trace of Precipitation, MM = Missing Value Source: Averaged Metar Reports

Daily Weather History Graph

Daily Weather History Graph

Search for Another Location

Airport:

Trip Planner

Search our weather history database for the weather conditions in past years. The results will help you decide how hot, cold, wet, or windy it might be!

Date:

Astronomy

Mar. 14, 2014 Rise Set
Actual Time 6:14 AM MST 6:11 PM MST
Civil Twilight 5:51 AM MST 6:35 PM MST
Nautical Twilight 5:23 AM MST 7:02 PM MST
Astronomical Twilight 4:56 AM MST 7:30 PM MST
Moon 4:41 PM MST (3/14) 4:49 AM MST (3/14)
Length of Visible Light 12h 44m
Length of Day
11h 57m
Waxing Gibbous, 96% of the Moon is Illuminated
Mar 14
Waxing Gibbous
Mar 16
Full
Mar 23
Last Quarter
Mar 30
New
Apr 7
First Quarter

Hourly Weather History & Observations

Time (MST) Temp. Windchill Dew Point Humidity Pressure Visibility Wind Dir Wind Speed Gust Speed Precip Events Conditions
1:45 AM 56 °F - 37 °F 36% 29.66 in 1 mi WNW 4.5 mph - -  
4:40 AM 41.0 °F 39.0 °F 26.6 °F 57% 29.84 in 10.0 mi SE 3.5 mph - N/A   Mostly Cloudy
4:50 AM 54 °F - 38 °F 43% 29.72 in 1 mi WSW 2.2 mph - -  
5:40 AM 41.0 °F - 26.6 °F 57% 30.00 in 10.0 mi Calm Calm - N/A   Mostly Cloudy
6:40 AM 37.4 °F - 26.6 °F 65% 30.01 in 10.0 mi Calm Calm - N/A   Mostly Cloudy
7:40 AM 55.4 °F - 30.2 °F 38% 29.90 in 10.0 mi Calm Calm - N/A   Scattered Clouds
7:53 AM 64 °F - 39 °F 28% 29.80 in 6 mi East 2.2 mph - -  
8:40 AM 66.2 °F - 32.0 °F 28% 30.07 in 10.0 mi SSW 3.5 mph - N/A   Scattered Clouds
9:40 AM 71.6 °F - 30.2 °F 22% 30.07 in 10.0 mi SW 10.4 mph - N/A   Scattered Clouds
10:40 AM 73.4 °F - 26.6 °F 18% 29.88 in 10.0 mi SE 4.6 mph - N/A   Scattered Clouds
10:55 AM 76 °F - 32 °F 11% 29.77 in 6 mi SE 4.5 mph - -   Clear
11:40 AM 77.0 °F - 26.6 °F 16% 30.03 in 10.0 mi WSW 3.5 mph - N/A   Mostly Cloudy
12:40 PM 78.8 °F - 24.8 °F 14% 29.99 in 10.0 mi NW 3.5 mph - N/A   Mostly Cloudy
1:40 PM 78.8 °F - 23.0 °F 13% 29.80 in 10.0 mi WNW 4.6 mph - N/A   Overcast
2:40 PM 80.6 °F - 23.0 °F 12% 29.93 in 10.0 mi East 6.9 mph - N/A   Overcast
3:40 PM 78.8 °F - 30.2 °F 17% 29.92 in 10.0 mi North 16.1 mph - N/A   Mostly Cloudy
4:42 PM 73.4 °F - 28.4 °F 19% 29.78 in 10.0 mi NNW 6.9 mph - N/A   Overcast
5:40 PM 75.2 °F - 21.2 °F 13% 29.95 in 10.0 mi West 12.7 mph - N/A   Overcast
6:40 PM 71.6 °F - 23.0 °F 16% 29.99 in 10.0 mi WSW 15.0 mph - N/A   Overcast
7:40 PM 71 °F - 30 °F 12% 29.59 in 1 mi NNW 6.7 mph - -  
7:41 PM 68.0 °F - 23.0 °F 18% 29.83 in 10.0 mi WSW 8.1 mph - N/A   Overcast
8:42 PM 64.4 °F - 23.0 °F 21% 30.04 in 10.0 mi SW 9.2 mph - N/A   Mostly Cloudy
9:40 PM 62.6 °F - 24.8 °F 24% 30.05 in 10.0 mi WSW 10.4 mph - N/A   Mostly Cloudy
10:40 PM 65 °F - 26 °F 13% 29.66 in 1 mi WNW 2.2 mph - -   Mostly Cloudy
10:40 PM 60.8 °F - 23.0 °F 23% 29.83 in 10.0 mi West 5.8 mph - N/A   Mostly Cloudy